Tracking 33197 objects as of 18-Feb-2026
HD Live streaming from Space Station
objects crossing your sky now

STARLINK-34719

Track STARLINK-34719 now!
10-day predictions
STARLINK-34719 is classified as:


NORAD ID: 64943
Int'l Code: 2025-158M
Perigee: 555.4 km
Apogee: 557.9 km
Inclination: 97.6 °
Period: 95.6 minutes
Semi major axis: 6927 km
RCS: Unknown
Launch date: July 26, 2025
Source: United States (US)
Launch site: AIR FORCE WESTERN TEST RANGE (AFWTR)
Your satellite tracking list
Your tracking list is empty




NASA's NSSDC Master Catalog

Two Line Element Set (TLE):
1 64943U 25158M   26048.59231037  .00001428  00000-0  10312-3 0  9992
2 64943  97.6008 274.3068 0001784  89.1656 270.9775 15.05651525 32336
Source of the keplerian elements: AFSPC